[[{"header":{"parameterUnit":"m.s-1","parameterCategory":1,"la1":30.2992,"la2":30.254,"lo1":-89.0895,"lo2":-89.0443,"dy":0.0025,"dx":0.0025,"nx":19,"ny":19,"refTime":"2026-03-22T03:00:00:Z","depth":0,"parameterNumber":2,"parameterNumberName":"U-component_of_WINDS"},"data":[0,0,0,3.4548,3.455,3.4643,3.4643,3.4784,3.4786,0,0,0,0,0,0,0,0,0,0,0,3.4534,3.4535,3.4548,3.4551,3.4643,3.4643,3.4784,3.4786,0,0,0,0,0,0,0,0,0,0,0,3.4533,3.4535,3.4537,3.4551,3.4643,3.4643,3.4784,3.4706,0,0,0,0,0,0,0,0,0,0,3.4613,3.4612,3.4534,3.4537,3.4552,3.4643,3.4643,3.4702,3.4711,3.4752,0,3.4791,0,3.4791,3.4797,3.4797,0,0,0,3.4542,3.4604,3.4617,3.4537,3.4553,3.4642,3.4599,3.4707,3.4717,3.4764,3.4793,3.4798,3.4793,3.4798,3.4799,3.5062,3.5064,0,0,3.4536,3.4558,3.4611,3.4625,3.461,3.4596,3.4602,3.4713,3.4746,3.4793,3.48,3.4795,3.4799,3.48,3.5061,3.5063,0,0,0,3.4528,3.4555,3.4564,3.4619,3.4634,3.4599,3.4605,3.4741,3.4742,3.4802,3.4797,3.48,3.4802,3.5059,3.5062,3.5162,0,0,0,3.4524,3.455,3.4563,3.4577,3.4632,3.4688,3.4632,3.4734,3.4746,3.4796,3.48,3.4803,3.5057,3.506,3.5156,3.5207,0,0,0,3.4524,3.4549,3.4567,3.4578,3.4618,3.4686,3.4693,3.4736,3.4744,3.4797,3.4804,3.5056,3.506,3.515,3.5197,3.5281,0,0,0,3.4529,3.4657,3.4569,3.471,3.4617,3.4748,3.4692,3.4789,3.4847,3.4801,3.5057,3.5061,3.5148,3.519,3.5274,3.5354,3.539,0,0,3.4702,3.4679,3.476,3.4684,3.4835,3.4732,3.4899,3.4933,3.492,3.5016,3.5022,3.5158,3.5196,3.5279,3.5584,3.5613,0,0,0,3.4822,3.4881,3.4916,3.4971,3.4999,3.5028,3.5033,3.5046,3.5126,3.4973,3.5211,3.5233,3.5281,3.5318,3.5343,3.5382,3.508,3.5079,3.5079,3.5098,3.5072,3.5205,3.5191,3.5245,3.525,3.5292,3.5309,3.527,3.5327,3.5354,3.5542,3.5587,3.5604,3.5646,3.5396,3.5396,3.5397,3.5397,3.5348,3.5426,3.5369,3.5477,3.545,3.5541,3.5551,3.5519,3.5601,3.5519,3.5561,3.5473,3.5636,3.5671,3.5404,3.5403,3.5402,3.5401,3.5401,3.5524,3.5557,3.5569,3.5645,3.5708,3.569,3.577,3.5744,3.5719,3.576,3.5786,3.5784,3.5778,3.5775,3.5775,3.5776,3.5777,3.5777,3.5777,3.5701,3.5711,3.5781,3.5821,3.5853,3.5891,3.5897,3.5928,3.5955,3.5929,3.593,3.5883,3.5657,3.56,3.5787,3.5786,3.5784,3.5783,3.5783,3.5961,3.5898,3.6006,3.6037,3.6082,3.6145,3.611,3.6175,3.6197,3.6237,3.6183,3.602,3.5994,3.5975,3.5927,3.6188,3.6188,3.6188,3.6188,3.6108,3.6093,3.6196,3.6248,3.6296,3.6275,3.6398,3.6405,3.6402,3.6414,3.6373,3.6308,3.6289,3.6274,3.6249,3.6203,3.6529,3.6529,3.6529,3.6266,3.6254,3.6363,3.6357,3.639,3.642,3.6534,3.6597,3.6581,3.6543,3.6422,3.6408,3.6303,3.627,3.6228,3.6188,3.6105,0,0]},{"header":{"parameterUnit":"m.s-1","parameterCategory":1,"la1":30.2992,"la2":30.254,"lo1":-89.0895,"lo2":-89.0443,"dy":0.0025,"dx":0.0025,"nx":19,"ny":19,"refTime":"2026-03-22T03:00:00:Z","depth":0,"parameterNumber":3,"parameterNumberName":"V-component_of_WINDS"},"data":[0,0,0,0.7495,0.7497,0.7572,0.7572,0.767,0.7671,0,0,0,0,0,0,0,0,0,0,0,0.7473,0.7474,0.7495,0.7497,0.7572,0.7572,0.767,0.7671,0,0,0,0,0,0,0,0,0,0,0,0.7473,0.7474,0.7474,0.7497,0.7572,0.7572,0.7669,0.7612,0,0,0,0,0,0,0,0,0,0,0.7539,0.7519,0.7473,0.7475,0.7498,0.7572,0.7573,0.761,0.7616,0.7636,0,0.7654,0,0.7664,0.7677,0.7678,0,0,0,0.7497,0.7514,0.7534,0.7475,0.7498,0.7572,0.7538,0.7613,0.762,0.7644,0.7655,0.7659,0.7665,0.7678,0.7678,0.7793,0.7794,0,0,0.7493,0.7487,0.7529,0.7538,0.7526,0.7536,0.754,0.7617,0.7629,0.7655,0.7661,0.7667,0.7679,0.7679,0.7793,0.7793,0,0,0,0.7481,0.7484,0.7502,0.7534,0.7548,0.7538,0.7543,0.7626,0.7632,0.7662,0.7668,0.7679,0.768,0.7792,0.7793,0.7814,0,0,0,0.7478,0.7477,0.75,0.7498,0.7546,0.7588,0.755,0.7626,0.7635,0.7668,0.7679,0.7681,0.7791,0.7792,0.7812,0.7825,0,0,0,0.7468,0.7476,0.7487,0.7497,0.7529,0.7586,0.7597,0.7628,0.7639,0.7678,0.7682,0.7791,0.7792,0.7811,0.7823,0.7854,0,0,0,0.7456,0.7506,0.7487,0.7545,0.7529,0.7599,0.7597,0.7649,0.7685,0.768,0.7791,0.7793,0.781,0.7821,0.7852,0.7879,0.789,0,0,0.7516,0.7513,0.7547,0.7533,0.7604,0.7588,0.7663,0.7701,0.771,0.7765,0.7768,0.7813,0.7822,0.7853,0.7951,0.7959,0,0,0,0.7564,0.7589,0.7609,0.7642,0.7671,0.7698,0.7725,0.7739,0.7785,0.7737,0.7832,0.7838,0.7857,0.787,0.7877,0.7893,0.7798,0.7798,0.7798,0.7642,0.7649,0.7706,0.7723,0.7755,0.7781,0.7808,0.7831,0.7831,0.7853,0.787,0.7928,0.7943,0.7949,0.7965,0.7884,0.7884,0.7884,0.7884,0.773,0.7766,0.7762,0.7816,0.7824,0.7869,0.7896,0.7894,0.7937,0.7916,0.7933,0.7909,0.7957,0.7972,0.7886,0.7886,0.7886,0.7885,0.7885,0.7782,0.7801,0.7816,0.7863,0.7899,0.7914,0.7956,0.7961,0.7967,0.7983,0.8001,0.8001,0.8001,0.7991,0.7991,0.7991,0.7992,0.7992,0.7992,0.783,0.7847,0.7881,0.7915,0.7936,0.7965,0.7991,0.8012,0.8037,0.8038,0.8038,0.8035,0.7961,0.7942,0.7995,0.7995,0.7994,0.7994,0.7994,0.7918,0.7899,0.7951,0.7972,0.8012,0.8047,0.8053,0.8096,0.8114,0.8134,0.8127,0.8071,0.8068,0.8063,0.8047,0.8125,0.8125,0.8125,0.8125,0.7962,0.7961,0.8015,0.8048,0.8082,0.8092,0.8151,0.8171,0.8189,0.82,0.819,0.8169,0.8163,0.8165,0.8157,0.8143,0.8243,0.8243,0.8243,0.8016,0.8018,0.8067,0.8084,0.8115,0.8142,0.8197,0.8235,0.8251,0.8248,0.8209,0.8204,0.8172,0.8161,0.8157,0.8145,0.8119,0,0]}]]